Lid_Strength_Index
1 1 1 1 1 1 1 1 -0 -0 -0 -0 -0 -0 -0 0 0 0 1 1 1 1
1 1 1 1 0 1 0 0 0 -0 0 -0 -0 -0 -0 0 0 0 1 1 0 1
1 1 1 1 1 1 0 0 0 0 0 -0 -0 -0 -0 0 0 0 1 1 1 1
1 1 1 1 1 0 0 0 0 0 0 0 0 -0 0 0 0 1 1 1 1 1
1 1 1 1 0 0 0 -0 0 0 0 0 0 0 0 1 1 1 2 2 1 1
1 1 1 1 0 0 0 0 0 0 1 1 0 0 0 1 1 1 1 1 1 1
1 1 1 1 0 0 0 0 0 0 0 0 0 0 0 1 1 1 1 1 1 1
1 1 1 1 1 0 0 0 0 0 0 0 0 1 1 1 1 1 2 1 1 0
1 1 1 1 1 1 0 0 1 1 1 1 0 10 7 2 1 1 1 2 1 1
1 1 1 1 1 1 1 1 1 1 0 1 1 10 8 6 1 1 1 1 2 1
1 2 1 1 1 1 1 1 1 1 1 1 3 9 9 7 0 1 1 2 2 2
1 1 1 1 1 1 1 1 1 1 1 1 2 10 9 3 1 1 2 2 2 2
1 1 1 1 1 1 1 1 1 1 1 4 2 10 9 4 1 2 3 3 3 7
1 1 1 1 1 1 1 1 1 1 1 1 2 4 10 7 1 2 3 3 4 5